カタログに戻る

COSMOS 917 DEB

運用中HEO
NORAD 27883·DEBRIS·🇷🇺 Russia

打ち上げ Jun 16, 1977 から Plesetsk Cosmodrome

Loading…

次のパス (今後24時間)

TLE

最新Source: Space-Track

元期: Sep 11, 2026, 19:35 UTC

1 27883U 77047F   26254.81647518  .00001039  00000-0  12818-2 0  9997
2 27883  60.0583 205.4365 7475938  58.6328 353.3436  2.02412802177151

AllMySatでCOSMOS 917 DEBをリアルタイム追跡

Download on the App Store